Driggs, ID

11:11 AM MST on November 20, 2017 (GMT -0700)
Driggs

Weather History for KDIJ - January, 2013

Change the Weather History Date:

Sunday, January 6, 2013

  Actual Average (KJAC) Record (KJAC)
Temperature  
Mean Temperature 16 °F -  
Max Temperature 32 °F 22 °F 42 °F (1969)
Min Temperature 0 °F -1 °F -36 °F (1979)
Degree Days  
Heating Degree Days 49    
Moisture  
Dew Point 7 °F    
Average Humidity 75    
Maximum Humidity 87    
Minimum Humidity 55    
Precipitation  
Precipitation 0.00 in - - ()
Sea Level Pressure  
Sea Level Pressure 30.24 in    
Wind  
Wind Speed 4 mph (ESE)    
Max Wind Speed 9 mph    
Max Gust Speed -    
Visibility 10 miles    
Events      
Averages and records for this station are not official NWS values.
T = Trace of Precipitation, MM = Missing Value Source: NWS Daily Summary

Daily Weather History Graph

Daily Weather History Graph

Search for Another Location

Airport or City:

Trip Planner

Search our weather history database for the weather conditions in past years. The results will help you decide how hot, cold, wet, or windy it might be!

Date:

Astronomy

Jan. 06, 2013 Rise Set
Actual Time 7:58 AM MST 5:03 PM MST
Civil Twilight 7:25 AM MST 5:35 PM MST
Nautical Twilight 6:49 AM MST 6:11 PM MST
Astronomical Twilight 6:14 AM MST 6:46 PM MST
Moon 2:12 AM MST (1/6) 12:36 PM MST (1/6)
Length of Visible Light 10h 10m
Length of Day
9h 05m
Waning Crescent, 32% of the Moon is Illuminated
Jan 6
Waning Crescent
Jan 11
New
Jan 18
First Quarter
Jan 26
Full
Feb 3
Last Quarter

Hourly Weather History & Observations

Time (MST) Temp. Windchill Dew Point Humidity Pressure Visibility Wind Dir Wind Speed Gust Speed Precip Events Conditions
12:56 AM 3.0 °F -4.4 °F -1.8 °F 80% 30.37 in 10.0 mi ESE 3.5 mph - N/A   Clear
1:56 AM 1.0 °F -6.7 °F -4.0 °F 79% 30.38 in 10.0 mi ESE 3.5 mph - N/A   Clear
2:56 AM 1.0 °F -11.7 °F -4.0 °F 79% 30.36 in 10.0 mi East 6.9 mph - N/A   Clear
3:56 AM 3.0 °F - -1.8 °F 80% 30.32 in 10.0 mi Calm Calm - N/A   Clear
4:56 AM 7.2 °F 0.3 °F 0.1 °F 73% 30.33 in 10.0 mi South 3.5 mph - N/A   Clear
5:56 AM 6.1 °F - 0.1 °F 77% 30.36 in 10.0 mi Calm Calm - N/A   Clear
6:56 AM 9.1 °F -1.9 °F 3.0 °F 76% 30.32 in 10.0 mi NNW 6.9 mph - N/A   Clear
7:56 AM 11.1 °F 0.4 °F 5.0 °F 76% 30.32 in 10.0 mi North 6.9 mph - N/A   Clear
9:56 AM 18.1 °F 12.9 °F 10.0 °F 71% 30.29 in 10.0 mi South 3.5 mph - N/A   Partly Cloudy
10:56 AM 19.0 °F - 11.1 °F 71% 30.28 in 10.0 mi Calm Calm - N/A   Partly Cloudy
11:56 AM 25.2 °F 20.9 °F 15.1 °F 66% 30.20 in 10.0 mi ESE 3.5 mph - N/A   Mostly Cloudy
12:56 PM 32.9 °F 27.5 °F 18.1 °F 55% 30.10 in 10.0 mi SSE 5.8 mph - N/A   Scattered Clouds
1:56 PM 24.1 °F 16.0 °F 16.2 °F 72% 30.14 in 10.0 mi NE 6.9 mph - N/A   Scattered Clouds
2:56 PM 28.0 °F 20.8 °F 17.1 °F 63% 30.12 in 10.0 mi North 6.9 mph - N/A   Partly Cloudy
3:56 PM 27.1 °F 23.2 °F 16.2 °F 63% 30.14 in 10.0 mi Variable 3.5 mph - N/A   Overcast
4:56 PM 23.0 °F 14.7 °F 16.2 °F 75% 30.14 in 10.0 mi South 6.9 mph - N/A   Overcast
5:56 PM 21.0 °F 14.6 °F 15.1 °F 78% 30.16 in 10.0 mi SSE 4.6 mph - N/A   Overcast
6:56 PM 20.1 °F 10.3 °F 15.1 °F 81% 30.17 in 10.0 mi NNE 8.1 mph - N/A   Overcast
7:56 PM 19.0 °F 11.1 °F 12.0 °F 74% 30.18 in 10.0 mi NNE 5.8 mph - N/A   Mostly Cloudy
8:56 PM 10.0 °F -2.9 °F 6.1 °F 84% 30.23 in 10.0 mi SSE 9.2 mph - N/A   Clear
9:56 PM 8.1 °F -0.5 °F 5.0 °F 87% 30.21 in 10.0 mi ESE 4.6 mph - N/A   Clear
10:56 PM -0.9 °F -11.0 °F -6.0 °F 79% 30.26 in 10.0 mi East 4.6 mph - N/A   Clear
11:56 PM 0.1 °F - -4.0 °F 83% 30.23 in 10.0 mi Calm Calm - N/A   Clear